Temperature
3 2 2 2 3 4 3 3 3 4 5 5 5 5 5 5 5 5 6 7 8 8 8 9 9 10 10 10 10 10 10 10 10 10 10 10 10 11 11 11 11 11 11 11
1 1 2 3 3 3 3 3 3 4 5 5 4 4 5 5 5 5 5 6 7 7 8 8 9 9 9 10 10 10 10 10 10 10 10 10 10 10 10 10 10 10 10 11
1 2 3 3 2 3 3 2 3 3 4 4 4 4 4 4 4 5 5 6 6 7 7 7 8 8 9 9 9 9 9 9 9 10 10 10 10 10 10 10 10 10 10 10
1 2 2 2 2 2 2 3 3 3 3 3 4 3 3 3 3 4 4 4 5 6 6 7 7 8 8 9 9 9 9 9 9 9 9 9 9 9 10 10 10 10 10 10
-0 1 1 1 2 2 2 3 3 3 2 2 3 2 2 2 3 3 3 4 4 5 6 6 7 7 8 8 9 9 9 9 9 9 9 9 9 9 9 9 9 9 9 9
-0 1 1 1 2 2 2 2 2 2 2 2 2 2 2 1 2 2 2 3 3 4 5 6 6 7 7 8 8 8 8 8 8 8 8 8 9 9 9 9 9 9 9 9
-1 0 1 1 1 2 1 1 1 1 2 2 2 2 1 1 1 2 2 2 2 3 4 5 5 6 7 7 7 8 8 8 8 8 8 8 8 8 9 9 9 9 9 9
-3 -2 -0 -0 0 -0 0 0 0 1 1 1 1 1 1 0 0 1 1 1 1 2 2 3 4 5 6 6 7 7 7 8 8 8 8 8 8 8 8 8 8 9 9 9
-4 -2 -1 -0 -0 -0 -0 -0 -0 -0 -0 0 0 -0 -0 -0 -1 -1 -1 -0 -0 0 1 2 3 4 5 6 6 7 7 7 7 8 8 8 8 8 8 8 8 8 8 8
-4 -3 -2 -1 -0 -0 -1 -1 -1 -1 -0 0 -0 -1 -1 -2 -2 -2 -2 -2 -2 -1 0 1 2 3 4 5 5 6 6 6 7 7 7 7 7 7 7 7 7 8 8 8
-4 -4 -3 -2 -2 -2 -2 -2 -2 -2 -2 -1 -1 -1 -2 -2 -2 -2 -2 -2 -2 -2 -1 -0 1 2 3 4 5 5 6 6 6 6 7 7 7 7 7 7 7 7 7 7
-4 -5 -5 -4 -3 -2 -2 -3 -3 -2 -2 -3 -2 -2 -3 -3 -3 -3 -3 -3 -3 -2 -2 -1 -0 1 2 3 3 4 5 5 6 6 6 6 6 6 6 6 7 7 7 7
-4 -5 -5 -4 -3 -3 -4 -4 -4 -3 -3 -3 -3 -3 -3 -4 -3 -3 -3 -3 -3 -3 -2 -2 -1 -0 0 1 2 3 3 4 5 5 5 5 6 6 6 6 6 6 6 6
-3 -6 -5 -5 -5 -5 -5 -4 -4 -4 -4 -4 -4 -4 -4 -5 -4 -4 -4 -4 -4 -3 -3 -3 -2 -2 -1 -0 1 1 2 3 4 4 4 5 5 5 5 5 6 6 6 6
-5 -6 -6 -5 -5 -5 -5 -5 -4 -5 -5 -5 -5 -5 -5 -5 -5 -5 -5 -4 -4 -4 -4 -4 -3 -3 -2 -1 -0 0 1 2 3 3 4 4 4 4 4 5 5 5 5 5
-6 -6 -6 -5 -4 -5 -5 -5 -5 -5 -5 -5 -5 -5 -6 -5 -5 -5 -5 -5 -5 -5 -5 -4 -4 -3 -3 -2 -1 -0 0 1 2 2 3 3 3 3 4 4 4 4 4 4
-7 -7 -6 -6 -6 -5 -6 -6 -6 -6 -6 -6 -6 -6 -6 -6 -6 -6 -6 -5 -5 -5 -5 -5 -4 -4 -3 -2 -2 -1 -0 0 1 1 2 2 2 2 3 3 3 3 3 4
-7 -7 -7 -7 -7 -7 -6 -6 -7 -7 -7 -7 -7 -7 -7 -7 -7 -6 -6 -6 -6 -6 -5 -5 -5 -4 -3 -3 -2 -1 -1 -0 0 0 1 1 1 2 2 2 2 2 3 3
-7 -7 -7 -8 -8 -7 -6 -7 -7 -7 -7 -7 -8 -7 -7 -7 -7 -6 -6 -6 -6 -6 -5 -5 -5 -4 -3 -3 -2 -2 -2 -1 -1 -0 -0 0 0 1 1 1 1 2 2 2
-7 -8 -8 -8 -8 -7 -7 -7 -7 -7 -8 -8 -8 -8 -8 -8 -7 -7 -7 -7 -6 -6 -5 -5 -5 -4 -4 -3 -3 -3 -2 -2 -1 -1 -1 -1 -0 -0 0 0 1 1 1 1
-8 -9 -9 -9 -9 -8 -8 -8 -7 -8 -8 -8 -8 -8 -9 -9 -8 -8 -8 -7 -7 -6 -6 -5 -5 -5 -4 -4 -3 -3 -3 -3 -2 -2 -1 -1 -1 -1 -0 -0 0 0 1 1
-9 -9 -10 -10 -9 -8 -8 -9 -9 -8 -8 -8 -9 -9 -9 -9 -9 -8 -8 -7 -7 -6 -6 -6 -5 -5 -5 -4 -4 -4 -3 -3 -3 -2 -2 -2 -1 -1 -1 -1 -0 -0 -0 0
-10 -10 -10 -10 -8 -8 -8 -8 -8 -8 -9 -9 -9 -9 -9 -9 -9 -8 -8 -7 -7 -7 -7 -6 -6 -5 -5 -5 -4 -4 -4 -3 -3 -3 -2 -2 -2 -2 -1 -1 -1 -1 -1 -1
-10 -10 -10 -10 -10 -9 -8 -8 -8 -9 -9 -9 -9 -9 -9 -9 -9 -8 -8 -8 -7 -7 -7 -7 -6 -6 -6 -5 -5 -5 -4 -4 -3 -3 -3 -3 -2 -2 -2 -2 -2 -2 -1 -1
-11 -11 -11 -11 -10 -9 -8 -8 -9 -9 -9 -9 -9 -9 -9 -9 -9 -8 -8 -8 -8 -8 -7 -7 -7 -7 -6 -6 -5 -5 -5 -4 -4 -4 -3 -3 -3 -3 -2 -2 -2 -2 -2 -2
-11 -11 -11 -10 -9 -10 -9 -8 -9 -9 -9 -9 -9 -9 -9 -9 -9 -9 -9 -8 -8 -8 -8 -7 -7 -7 -7 -6 -6 -6 -5 -5 -5 -4 -4 -4 -3 -3 -3 -3 -3 -3 -3 -2
Wind_Speed
1 1 4 7 8 6 4 4 6 5 3 4 7 7 5 1 0 2 3 2 3 3 2 1 2 2 3 4 5 6 6 6 6 5 4 4 3 2 2 3 4 6 6 7
2 3 7 5 5 5 5 6 5 4 2 4 5 7 5 2 3 2 3 3 3 2 0 1 1 2 3 4 4 5 6 6 6 5 4 3 3 2 2 2 3 5 6 6
3 5 4 3 4 5 7 8 7 5 3 2 2 5 5 3 3 2 2 2 2 3 3 2 1 1 2 3 4 5 5 5 5 5 4 4 3 3 2 2 2 3 5 6
4 5 4 4 5 5 9 7 7 6 4 4 4 4 4 4 3 4 4 3 3 2 2 1 1 1 2 3 3 4 5 5 6 6 6 7 5 4 3 3 2 2 4 5
4 4 5 5 6 4 5 6 7 7 5 4 4 4 4 2 3 5 5 4 3 3 2 2 2 3 2 2 3 4 5 5 5 6 7 7 5 4 3 3 4 3 2 4
5 4 2 4 6 5 4 2 2 2 3 6 7 6 4 2 5 5 4 3 3 2 2 2 1 1 2 1 2 3 4 5 5 6 6 7 7 6 6 4 4 3 2 2
7 5 3 2 4 3 2 1 1 2 4 5 5 5 4 2 3 3 3 2 1 2 1 2 1 1 0 1 1 2 4 4 4 5 6 6 6 7 7 6 5 4 3 2
5 7 5 4 2 4 3 2 3 4 4 2 3 4 2 2 4 4 3 2 3 3 2 2 2 1 1 1 2 3 3 3 4 4 5 4 5 5 4 5 4 5 4 4
3 6 6 6 4 2 2 3 2 1 1 2 3 2 2 6 8 8 7 6 5 4 3 3 3 2 2 1 1 3 3 3 3 3 3 3 4 4 4 4 4 4 3 3
2 6 7 6 4 4 2 1 0 1 2 3 2 2 2 6 7 8 8 7 7 6 5 5 4 3 3 1 0 1 2 2 2 3 3 2 3 3 3 4 4 4 4 3
1 3 6 5 4 5 4 2 1 1 1 2 2 2 1 3 5 7 7 7 6 6 6 5 4 4 3 3 2 1 1 1 1 2 2 2 2 3 3 3 3 3 3 4
2 0 4 4 3 3 2 2 1 1 2 2 2 2 3 4 6 6 7 7 7 7 6 5 5 5 5 5 4 2 1 1 0 1 1 2 2 3 3 3 3 3 3 3
2 2 4 6 4 5 4 5 3 1 0 1 2 3 4 8 9 9 8 8 7 8 7 7 7 6 6 5 4 3 3 2 1 1 1 1 1 2 3 3 3 3 3 3
3 2 2 3 4 4 5 7 5 1 0 1 2 4 7 11 11 10 9 8 7 7 7 7 7 7 6 5 5 4 4 3 2 1 1 1 1 2 2 2 2 3 3 3
3 0 1 3 4 3 5 7 6 2 0 2 4 4 7 9 9 8 8 8 8 8 9 8 7 7 7 6 6 5 5 4 2 1 1 0 1 1 1 2 2 2 3 3
3 1 2 3 3 3 5 8 6 4 2 1 4 5 7 8 7 7 7 8 8 8 9 8 8 8 8 7 7 6 5 4 2 1 1 1 1 0 1 2 2 2 2 2
2 0 1 3 5 3 4 5 4 3 3 2 3 5 9 9 9 8 8 8 8 9 9 8 8 8 7 7 7 6 5 4 2 2 1 1 0 0 1 1 2 2 2 2
1 0 1 1 4 1 3 1 3 3 3 3 5 8 9 9 9 6 6 7 8 9 9 8 8 8 7 7 6 6 5 4 3 2 2 1 1 0 1 1 2 2 2 3
1 2 1 1 1 4 3 3 4 3 4 4 6 9 10 9 6 4 6 7 7 7 7 7 7 6 6 6 6 5 5 4 4 3 3 2 1 0 1 1 1 2 2 2
4 3 2 2 1 3 4 5 6 1 4 5 6 8 10 9 5 6 9 10 9 8 7 6 6 6 6 6 6 5 5 4 4 4 3 2 1 0 1 1 1 1 2 3
3 3 1 1 2 5 4 6 3 1 4 7 6 7 7 5 5 8 11 10 8 8 7 6 6 6 6 6 6 5 5 5 5 4 3 2 2 1 0 1 1 2 2 3
1 0 1 1 1 5 3 3 0 4 5 6 6 6 7 8 8 9 10 10 9 8 8 7 7 7 7 6 6 6 6 6 5 4 3 2 2 1 1 2 2 2 3 4
2 3 3 4 4 4 1 2 3 3 4 5 5 7 7 8 8 9 9 8 8 8 7 7 7 7 7 7 6 5 6 6 5 4 3 2 2 2 1 2 2 2 3 3
2 1 2 3 5 5 5 4 4 4 4 6 6 7 6 7 8 8 8 8 8 7 7 6 6 7 8 8 7 6 6 6 5 4 3 2 2 2 2 1 2 2 2 2
3 2 2 4 6 6 5 4 5 6 6 7 7 6 5 5 6 6 6 7 7 7 7 6 6 6 8 8 7 7 6 6 5 4 3 2 2 2 2 2 1 1 1 2
2 3 4 5 4 3 6 6 5 6 7 7 7 7 6 5 5 6 6 6 6 6 6 7 7 7 8 7 7 7 6 5 4 4 3 2 2 1 1 2 3 4 2 2
Wind_Direction
3 95 229 236 226 235 227 233 249 247 231 199 216 243 267 284 264 259 251 227 213 225 232 133 128 133 132 139 148 154 153 156 152 153 157 157 164 161 143 132 147 151 152 155
35 264 261 262 251 254 246 248 254 264 263 216 218 246 257 233 224 231 241 244 241 252 340 77 110 128 145 153 160 158 162 161 160 162 163 157 151 149 137 118 137 152 152 155
232 272 287 296 280 254 249 235 237 245 294 260 219 260 252 258 237 245 250 249 253 226 224 218 162 162 153 166 175 174 172 165 161 150 136 118 99 91 107 135 155 157 162 162
283 298 319 304 276 253 257 247 245 242 229 242 206 248 255 244 251 251 254 257 254 248 233 220 180 169 187 199 188 177 171 165 161 152 152 151 153 156 176 169 162 139 157 160
296 307 309 291 279 265 258 260 241 236 224 234 226 222 276 235 255 262 258 258 265 250 224 218 210 206 206 201 189 182 166 162 162 162 163 162 156 158 143 133 144 151 144 158
294 301 294 277 283 263 286 284 250 231 204 229 218 203 265 228 242 263 268 271 285 289 265 246 235 196 202 189 178 172 163 166 166 168 168 168 163 154 143 146 160 164 158 157
331 315 321 325 332 323 336 96 181 218 214 233 182 187 248 281 287 255 258 268 318 343 358 348 340 311 207 165 177 168 166 169 170 173 175 177 174 167 165 168 173 169 170 182
339 314 326 344 306 277 270 197 190 214 217 229 175 208 235 336 355 353 354 18 27 14 7 358 330 310 267 192 175 171 172 171 170 175 182 179 172 171 175 174 173 179 185 187
324 295 317 330 326 309 279 241 226 206 241 202 212 255 319 4 6 11 14 18 15 359 355 359 355 345 329 245 183 183 180 169 172 177 171 171 170 171 172 171 168 174 174 164
252 289 308 324 345 16 348 288 113 194 216 229 228 228 297 335 346 356 4 5 2 358 359 3 0 353 348 331 181 163 171 175 169 169 172 179 178 174 168 162 169 174 173 158
264 279 311 349 20 348 3 8 340 236 209 197 219 267 358 335 343 346 354 357 359 359 358 359 358 1 9 18 28 50 97 110 134 161 165 163 171 166 158 164 177 178 174 166
302 168 296 290 290 331 28 5 307 220 280 227 195 268 5 2 358 357 356 359 1 2 2 6 7 12 16 19 16 17 20 40 92 157 153 167 166 158 164 176 184 175 180 179
2 51 339 342 351 4 13 3 355 257 189 239 209 259 3 7 8 6 360 355 357 3 6 11 15 15 11 7 3 2 2 0 9 56 111 129 161 172 184 187 180 175 180 185
20 74 159 227 275 321 331 345 2 51 211 271 259 277 330 350 351 351 352 352 355 2 5 11 11 5 1 359 357 355 355 356 7 39 93 140 200 201 196 183 176 182 182 185
44 58 238 252 285 349 354 345 359 30 234 230 281 291 321 331 331 337 346 352 359 2 2 4 2 358 357 358 357 356 355 355 2 24 40 294 296 232 178 175 176 183 186 192
17 294 295 298 310 4 4 356 357 358 357 299 318 306 325 327 338 348 352 354 358 357 354 356 358 357 354 351 348 348 347 347 359 5 350 355 5 159 182 180 170 169 181 184
330 318 331 294 321 347 340 345 355 5 6 351 315 313 332 340 342 341 344 351 352 351 348 351 351 347 344 340 338 337 335 340 356 358 2 17 48 172 189 173 155 170 181 172
249 258 173 311 21 320 261 29 359 337 344 357 335 330 333 328 318 327 350 352 345 343 343 343 343 341 339 338 339 338 342 351 360 356 355 4 11 203 148 147 162 171 158 154
185 165 109 88 304 279 302 352 350 321 318 351 338 333 337 336 337 344 359 355 337 331 331 332 333 333 335 341 343 345 350 355 1 356 346 338 344 126 145 149 157 157 144 142
38 62 104 99 142 263 282 316 320 280 307 345 344 331 335 348 343 326 341 339 334 335 336 339 339 344 345 346 347 352 349 352 345 337 333 333 339 339 175 178 165 143 144 144
1 20 59 162 231 271 294 320 356 102 289 324 326 322 326 322 288 302 319 326 329 334 339 346 346 350 347 346 352 355 352 342 330 329 333 343 354 336 182 141 128 127 131 126
222 215 248 146 239 275 325 17 145 254 300 315 316 314 311 307 307 313 321 325 333 339 346 351 351 348 348 353 357 352 346 338 338 341 347 358 9 8 54 108 112 119 128 127
210 205 206 201 227 276 285 253 276 303 306 308 310 310 309 310 312 318 322 328 333 337 343 349 349 346 349 354 358 351 339 339 347 357 2 11 17 23 49 103 120 119 122 133
289 272 207 266 274 285 294 294 311 315 305 307 308 308 308 307 309 316 323 330 335 338 343 347 350 350 347 350 352 346 337 343 356 3 2 16 35 37 47 79 114 130 143 145
252 200 231 269 288 313 305 291 299 313 316 318 320 316 308 308 311 316 323 327 332 337 341 346 347 345 343 345 347 346 345 350 358 3 6 17 32 52 61 64 70 119 145 168
208 190 197 243 257 249 280 297 304 310 314 318 323 324 327 321 317 323 324 328 333 337 342 346 347 344 341 343 343 345 347 353 358 360 2 8 20 46 75 87 58 42 63 82
Height
1473 1477 1477 1475 1475 1474 1476 1477 1477 1474 1471 1473 1473 1473 1473 1472 1472 1472 1472 1473 1474 1475 1478 1479 1481 1484 1486 1489 1492 1495 1498 1502 1505 1507 1510 1513 1516 1519 1522 1525 1528 1531 1533 1536
1477 1478 1475 1474 1474 1474 1475 1477 1477 1473 1471 1472 1472 1472 1471 1471 1471 1471 1472 1472 1472 1473 1475 1477 1479 1481 1484 1486 1489 1492 1496 1499 1502 1505 1508 1512 1515 1517 1520 1523 1526 1529 1531 1534
1479 1477 1473 1473 1473 1473 1473 1475 1475 1474 1471 1470 1472 1471 1470 1469 1469 1469 1469 1470 1470 1471 1473 1475 1477 1479 1481 1484 1487 1490 1493 1496 1499 1503 1506 1509 1512 1515 1518 1520 1524 1527 1529 1532
1479 1476 1474 1473 1472 1472 1472 1470 1471 1471 1474 1475 1472 1474 1469 1468 1467 1467 1467 1468 1468 1469 1471 1473 1475 1477 1479 1482 1485 1488 1491 1494 1497 1500 1503 1505 1508 1510 1514 1518 1521 1524 1527 1529
1481 1477 1476 1474 1472 1471 1470 1468 1469 1469 1472 1476 1473 1475 1471 1468 1468 1466 1466 1466 1466 1468 1469 1471 1473 1475 1477 1480 1483 1486 1488 1491 1494 1497 1500 1503 1506 1509 1512 1515 1519 1522 1524 1527
1481 1478 1477 1475 1472 1470 1469 1468 1467 1469 1471 1473 1472 1474 1472 1471 1467 1465 1464 1464 1465 1466 1467 1469 1471 1473 1475 1477 1480 1482 1485 1488 1491 1494 1497 1500 1503 1506 1509 1512 1515 1518 1521 1524
1484 1479 1477 1475 1473 1470 1471 1472 1474 1473 1470 1469 1467 1471 1471 1468 1466 1464 1463 1463 1463 1464 1464 1466 1467 1469 1471 1474 1476 1479 1482 1485 1488 1491 1494 1497 1501 1503 1506 1509 1512 1515 1518 1520
1496 1488 1480 1477 1477 1476 1474 1475 1477 1476 1471 1470 1469 1470 1471 1469 1466 1464 1463 1463 1462 1463 1463 1464 1465 1467 1468 1471 1473 1476 1479 1482 1485 1488 1492 1495 1498 1501 1504 1507 1509 1512 1514 1517
1501 1492 1482 1479 1478 1477 1475 1475 1475 1478 1475 1474 1471 1473 1471 1468 1467 1466 1464 1462 1462 1462 1462 1462 1463 1465 1466 1468 1470 1473 1476 1479 1482 1485 1489 1492 1495 1498 1501 1504 1507 1509 1512 1514
1501 1499 1487 1482 1479 1478 1479 1478 1478 1480 1475 1471 1473 1475 1476 1474 1471 1469 1466 1465 1463 1462 1461 1461 1462 1463 1464 1466 1468 1470 1473 1476 1479 1482 1485 1488 1491 1494 1497 1500 1503 1506 1508 1511
1500 1501 1493 1487 1487 1486 1483 1482 1482 1481 1479 1477 1476 1481 1478 1477 1474 1471 1469 1467 1465 1463 1462 1461 1461 1462 1463 1464 1466 1468 1470 1473 1476 1479 1482 1485 1488 1491 1494 1496 1499 1502 1504 1507
1500 1502 1500 1494 1489 1487 1486 1487 1486 1485 1483 1483 1482 1486 1479 1478 1475 1473 1470 1468 1466 1464 1463 1461 1461 1461 1461 1462 1463 1465 1468 1470 1472 1475 1479 1482 1485 1487 1490 1492 1495 1498 1500 1502
1501 1505 1505 1497 1495 1492 1490 1489 1487 1485 1486 1486 1484 1487 1479 1478 1475 1474 1472 1470 1467 1465 1463 1462 1461 1460 1460 1461 1462 1464 1466 1467 1470 1472 1475 1478 1481 1483 1486 1489 1491 1494 1496 1498
1501 1506 1508 1508 1503 1499 1496 1491 1488 1487 1489 1490 1489 1487 1483 1481 1478 1475 1473 1471 1468 1466 1464 1463 1461 1461 1461 1461 1462 1462 1464 1466 1467 1470 1472 1475 1477 1480 1482 1485 1487 1490 1492 1494
1504 1507 1506 1503 1499 1498 1496 1494 1491 1491 1491 1492 1490 1488 1486 1484 1482 1478 1475 1472 1469 1467 1465 1463 1462 1461 1461 1461 1461 1461 1462 1464 1465 1467 1469 1472 1474 1476 1478 1481 1483 1485 1488 1490
1506 1508 1505 1502 1498 1497 1497 1496 1494 1493 1493 1492 1490 1489 1487 1485 1482 1479 1476 1473 1471 1468 1467 1465 1463 1462 1461 1460 1460 1461 1461 1462 1463 1465 1467 1469 1471 1473 1475 1477 1479 1481 1483 1485
1509 1509 1507 1506 1502 1498 1502 1501 1499 1498 1497 1496 1493 1492 1488 1484 1481 1479 1476 1474 1472 1470 1468 1465 1463 1462 1461 1461 1460 1460 1460 1461 1462 1463 1464 1466 1467 1469 1471 1473 1475 1477 1479 1481
1509 1508 1509 1509 1508 1511 1505 1502 1501 1499 1497 1496 1494 1491 1489 1485 1481 1478 1476 1474 1472 1470 1468 1466 1464 1462 1461 1460 1460 1460 1459 1459 1460 1461 1462 1463 1464 1466 1468 1470 1472 1474 1476 1477
1506 1508 1511 1513 1514 1510 1504 1502 1502 1501 1497 1495 1494 1491 1487 1484 1479 1477 1475 1474 1472 1470 1468 1466 1464 1462 1461 1460 1459 1458 1458 1458 1458 1458 1459 1461 1462 1463 1465 1467 1468 1471 1472 1474
1508 1509 1513 1516 1514 1511 1506 1503 1500 1501 1499 1495 1494 1491 1488 1484 1482 1479 1476 1473 1471 1469 1467 1465 1463 1460 1459 1458 1457 1457 1456 1456 1456 1457 1458 1459 1460 1461 1462 1464 1466 1468 1469 1471
1515 1517 1519 1519 1519 1511 1506 1502 1501 1506 1502 1496 1493 1491 1489 1487 1485 1481 1476 1473 1470 1467 1465 1463 1461 1459 1458 1457 1456 1455 1455 1455 1455 1455 1456 1457 1457 1459 1460 1461 1463 1465 1467 1468
1519 1520 1521 1521 1520 1514 1504 1502 1504 1502 1498 1495 1492 1490 1488 1485 1481 1478 1475 1472 1469 1466 1464 1462 1460 1458 1457 1456 1455 1454 1453 1453 1453 1453 1454 1454 1455 1456 1457 1459 1460 1462 1464 1465
1519 1518 1517 1517 1513 1507 1504 1502 1501 1499 1496 1493 1491 1488 1485 1482 1479 1476 1473 1470 1468 1465 1463 1461 1459 1457 1456 1455 1454 1453 1452 1452 1451 1451 1451 1452 1453 1454 1455 1456 1457 1459 1461 1462
1516 1514 1514 1513 1507 1504 1502 1501 1499 1497 1495 1492 1489 1486 1483 1480 1477 1474 1471 1469 1466 1464 1462 1460 1458 1456 1455 1454 1453 1452 1451 1450 1450 1449 1450 1450 1451 1452 1453 1454 1455 1457 1458 1460
1514 1514 1513 1511 1506 1503 1500 1499 1497 1495 1492 1489 1486 1483 1481 1478 1476 1473 1471 1468 1466 1464 1462 1460 1458 1456 1454 1453 1452 1451 1450 1449 1448 1448 1448 1449 1449 1450 1451 1452 1454 1455 1457 1459
1510 1511 1511 1507 1503 1503 1499 1497 1495 1493 1490 1487 1484 1481 1479 1477 1475 1473 1470 1468 1466 1464 1462 1459 1458 1456 1454 1453 1451 1450 1449 1449 1448 1447 1447 1447 1448 1449 1450 1450 1452 1453 1455 1457